Showing default

ELEKTRON 3, 829

Orbit data source: Space-Track

ELEKTRON 3, 829 is a payload satellite owned by OKB-1 (CIS) that was launched on Fri, 10 Jul 1964 UTC via a VOSTOK 8K72 launch vehicle from the Tyuratam Missile And Space Complex (TTMTR). Payload-class satellites include a variety of spacecraft equipped with specific instruments for various scientific and technological missions. These include communications satellites like Starlink; space stations such as the ISS; scientific satellites like the Hubble; Earth observation satellites from companies like Planet Labs, Umbra, and HawkEye 360; GPS; miniature CubeSats for education and research; and military/defense satellites.

Loading next visibility...
Identifier
829, 1964-038A
Orbit
Active
Country
Flag of CISCIS
Related business
Manufacturer
OKB-1
Mission
Spacecraft
Bus & Motor
OBJECT D, Unknown motor
Mass
350 kg wet, 350 kg dry
Launch date (UTC)
1964-07-10 (62 years ago)
Launch vehicle
VOSTOK 8K72
Launch site
Tyuratam Missile And Space Complex (TTMTR)
Object type
Payload
Rocket body
Debris
Shape & HBR
Unknown
Radar Cross Section
Large (>1 m²)

Expand to show TLE details & history
Last TLE update: 14 hours ago

TLE from 14 hours ago
0 ELEKTRON 3
1   829U 64038A   26100.91528549  .00000728  00000-0  21186-3 0  9990
2   829  60.8151 294.0763 2938945 330.9993  15.4751  9.21169788  9259
Epoch: 2026-04-10T21:58Z
TLE epoch observation values (Epoch: 2026-04-10T21:58:00.666Z)
Latitude
-0.00002°
Longitude
125.43142°
Altitude
611.214 km
Speed
8.522 km/s
True Right ascension
19h 36m 18s
True Declination
0° 00' 00"
Sunlit
Object was in daylight at epoch
Visualization orbit readout
Latitude
Unknown
Longitude
Unknown
Altitude
Unknown
Speed
Unknown
Apparent Right ascension
Unknown
Apparent Declination
Unknown
Sunlit
N/A
Visualization observer readout
Local Sidereal Time
17:53:45
Azimuth
Unknown
Elevation
Unknown
Doppler factor
Unknown
Orbital elements
Apogee altitude
6,058.622 km
Perigee altitude
408.864 km
Semi-major axis
9,611.88 km
Eccentricity
0.29389
Inclination
60.8151°
RAAN
294.0763°
Arg. of periapsis
330.9993°
True anomaly
29.09183°
Mean anomaly
15.4751°
Eccentric anomaly
21.7017°
Mean motion
2.30319 °/min
Orbital period
156.3 mins
BSTAR
0.00021186
Loading maneuver chart data...
Computing Atmospheric mass density...
Loading historical data...
Loading historical data...
Loading historical data...
Loading historical data...
Loading historical data...
Loading historical data...
Loading historical data...

Documentation

Showing up to 5 results
|